HB3YKO-13 Weather Reports


time (UTC)temp
C
wind
direction
speed
KPH
gust
KPH
rain 1hr
cm
rain 24hr
cm
rain mn
cm
humidity
%
barometer
mb
20260507041436 -17 171 0.0 0.0 0.00 0.00 0.00 87
20260507040936 -17 171 0.0 0.0 0.00 0.00 0.00 87
20260507040436 -17 171 0.0 0.0 0.00 0.00 0.00 87
20260507035936 -17 171 0.0 0.0 0.00 0.00 0.00 87
20260507035436 -17 171 0.0 0.0 0.00 0.00 0.00 89
20260507034936 -17 171 0.0 0.0 0.00 0.00 0.00 88
20260507034436 -17 171 0.0 0.0 0.00 0.00 0.00 88
20260507033936 -17 171 0.0 0.0 0.00 0.00 0.00 88
20260507033436 -17 171 0.0 0.0 0.00 0.00 0.00 89
20260507032936 -17 171 0.0 0.0 0.00 0.00 0.00 87
20260507032436 -17 171 0.0 0.0 0.00 0.00 0.00 88
20260507031936 -17 171 0.0 0.0 0.00 0.00 0.00 89
20260507031436 -17 171 0.0 0.0 0.00 0.00 0.00 89
20260507030936 -17 171 0.0 0.0 0.00 0.00 0.00 89
20260507030436 -17 171 0.0 0.0 0.00 0.00 0.00 89
20260507025936 -17 171 0.0 0.0 0.00 0.00 0.00 90
20260507025436 -17 171 0.0 0.0 0.00 0.00 0.00 89
20260507024936 -17 171 0.0 0.0 0.00 0.00 0.00 89
20260507024436 -17 171 0.0 0.0 0.00 0.00 0.00 88
20260507023936 -17 171 0.0 0.0 0.00 0.00 0.00 86
20260507023436 -17 171 0.0 0.0 0.00 0.00 0.00 87
20260507022936 -17 171 0.0 6.4 0.00 0.00 0.00 86
20260507022436 -17 75 1.6 8.0 0.00 0.00 0.00 85
20260507021936 -17 111 4.8 11.3 0.00 0.00 0.00 85
20260507021436 -17 161 9.7 9.7 0.00 0.00 0.00 86
20260507020936 -17 191 0.0 0.0 0.00 0.00 0.00 88
20260507020436 -17 191 0.0 0.0 0.00 0.00 0.00 89
20260507015936 -17 191 0.0 1.6 0.00 0.00 0.00 89
20260507015436 -17 219 1.6 1.6 0.00 0.00 0.00 89
20260507014936 -17 344 0.0 0.0 0.00 0.00 0.00 89
20260507014436 -17 344 0.0 0.0 0.00 0.00 0.00 89
20260507013936 -17 344 0.0 0.0 0.00 0.00 0.00 89
20260507013436 -17 344 0.0 0.0 0.00 0.00 0.00 89
20260507012936 -17 344 0.0 0.0 0.00 0.00 0.00 89
20260507012437 -17 344 0.0 0.0 0.00 0.00 0.00 89
20260507011936 -17 344 0.0 0.0 0.00 0.00 0.00 89
20260507011436 -17 344 0.0 0.0 0.00 0.00 0.00 89
20260507010936 -17 344 0.0 0.0 0.00 0.00 0.00 88
20260507010436 -17 344 0.0 0.0 0.00 0.00 0.00 88
20260507005936 -17 344 0.0 0.0 0.00 0.00 0.00 88
20260507005436 -17 344 0.0 0.0 0.00 0.00 0.00 90
20260507004936 -17 344 0.0 0.0 0.00 0.00 0.00 89
20260507004436 -17 344 0.0 0.0 0.00 0.00 0.00 89
20260507003936 -17 344 0.0 0.0 0.00 0.00 0.00 88
20260507003436 -17 344 0.0 1.6 0.00 0.00 0.00 88
20260507002936 -17 271 0.0 0.0 0.00 0.00 0.00 88
20260507002436 -17 271 0.0 3.2 0.00 0.00 0.00 87
20260507001936 -17 281 0.0 0.0 0.00 0.00 0.00 88
20260507001436 -17 281 0.0 0.0 0.00 0.00 0.00 89
20260507000936 -17 281 0.0 0.0 0.00 0.00 0.00 89
20260507000436 -17 281 0.0 0.0 0.00 0.00 0.00 89
20260506235936 -17 281 0.0 0.0 0.00 0.00 0.00 89
20260506235436 -17 281 0.0 0.0 0.00 0.00 0.00 90
20260506234936 -17 281 0.0 0.0 0.00 0.00 0.00 90
20260506234436 -17 281 0.0 0.0 0.00 0.00 0.00 89
20260506233936 -17 281 0.0 1.6 0.00 0.00 0.00 88
20260506233436 -17 267 1.6 4.8 0.00 0.00 0.00 88
20260506232936 -17 260 0.0 0.0 0.00 0.00 0.00 89
20260506232436 -17 260 0.0 0.0 0.00 0.00 0.00 90
20260506231936 -17 293 0.0 6.4 0.00 0.00 0.00 89
20260506231436 -17 250 0.0 8.0 0.00 0.00 0.00 88
20260506230936 -17 278 6.4 8.0 0.00 0.00 0.00 87
20260506230436 -17 271 1.6 3.2 0.00 0.00 0.00 87
20260506225936 -17 132 0.0 0.0 0.00 0.00 0.00 89
20260506225436 -17 132 0.0 0.0 0.00 0.00 0.00 88
20260506224936 -17 132 0.0 0.0 0.00 0.00 0.00 88
20260506224436 -17 132 0.0 0.0 0.00 0.00 0.00 88
20260506223936 -17 132 0.0 4.8 0.00 0.00 0.00 89
20260506223436 -17 39 0.0 9.7 0.00 0.00 0.00 89
20260506222936 -17 45 0.0 14.5 0.00 0.00 0.00 89
20260506222436 -17 158 6.4 12.9 0.00 0.00 0.00 89
20260506221936 -17 133 11.3 14.5 0.00 0.00 0.00 89
20260506221436 -17 149 11.3 14.5 0.00 0.00 0.00 88
20260506220936 -17 147 3.2 4.8 0.00 0.00 0.00 87
20260506220436 -17 126 1.6 4.8 0.00 0.00 0.00 86
20260506215936 -17 205 0.0 0.0 0.00 0.00 0.00 85
20260506215436 -17 205 0.0 3.2 0.00 0.00 0.00 85
20260506214936 -17 192 3.2 4.8 0.00 0.00 0.00 85
20260506214437 -17 46 0.0 11.3 0.00 0.00 0.00 83
20260506213937 -17 56 0.0 9.7 0.00 0.03 0.00 84
20260506213437 -17 14 0.0 6.4 0.00 0.03 0.00 84
20260506212937 -17 347 1.6 14.5 0.00 0.03 0.00 81
20260506212437 -17 135 0.0 8.0 0.00 0.03 0.00 83
20260506211937 -17 354 3.2 9.7 0.00 0.03 0.00 83
20260506211437 -17 9 0.0 1.6 0.00 0.03 0.00 83
20260506210937 -17 46 0.0 0.0 0.00 0.03 0.00 83
20260506210437 -17 46 0.0 4.8 0.00 0.03 0.00 82
20260506205937 -17 344 0.0 0.0 0.00 0.03 0.00 82
20260506205437 -17 344 0.0 0.0 0.00 0.03 0.00 81
20260506204937 -17 344 0.0 0.0 0.00 0.03 0.00 80
20260506204437 -17 344 0.0 1.6 0.00 0.03 0.00 80
20260506203937 -17 358 1.6 4.8 0.00 0.03 0.00 81
20260506203437 -17 347 3.2 4.8 0.00 0.03 0.00 80
20260506202937 -17 264 0.0 0.0 0.00 0.03 0.00 81
20260506202437 -17 358 0.0 3.2 0.00 0.03 0.00 81
20260506201937 -17 1 0.0 6.4 0.00 0.03 0.00 81
20260506201437 -17 345 4.8 6.4 0.00 0.03 0.00 79
20260506200937 -17 98 0.0 0.0 0.00 0.03 0.00 79
20260506200437 -17 98 0.0 0.0 0.00 0.03 0.00 79
20260506195937 -17 98 0.0 0.0 0.00 0.03 0.00 78
20260506195437 -17 98 0.0 0.0 0.00 0.03 0.00 78
20260506194937 -17 98 0.0 0.0 0.00 0.03 0.00 78
20260506194437 -17 98 0.0 0.0 0.00 0.03 0.00 77
20260506193937 -17 98 0.0 0.0 0.00 0.03 0.00 76
20260506193437 -17 98 0.0 0.0 0.00 0.03 0.00 76
20260506192937 -17 98 0.0 0.0 0.00 0.03 0.00 75
20260506192437 -17 98 0.0 0.0 0.00 0.03 0.00 74
20260506191937 -17 98 0.0 3.2 0.00 0.03 0.00 74
20260506191437 -17 160 0.0 0.0 0.00 0.03 0.00 75
20260506190937 -17 160 0.0 0.0 0.00 0.03 0.00 74
20260506190437 -17 160 0.0 1.6 0.00 0.03 0.00 74
20260506185937 -17 216 0.0 0.0 0.00 0.03 0.00 73
20260506185437 -17 216 0.0 0.0 0.00 0.03 0.00 73
20260506184937 -17 216 0.0 0.0 0.00 0.03 0.00 72
20260506184437 -17 216 0.0 0.0 0.00 0.03 0.00 72
20260506183937 -17 216 0.0 0.0 0.00 0.03 0.00 73
20260506183437 -17 216 0.0 0.0 0.00 0.03 0.00 72
20260506182937 -17 216 0.0 3.2 0.00 0.03 0.00 72
20260506182437 -17 240 0.0 4.8 0.00 0.03 0.00 70
20260506181937 -17 154 0.0 1.6 0.00 0.03 0.00 70
20260506181437 -17 174 0.0 0.0 0.00 0.03 0.00 69
20260506180937 -17 174 0.0 4.8 0.00 0.03 0.00 68
20260506180437 -17 45 0.0 0.0 0.00 0.03 0.00 68
20260506175937 -17 45 0.0 0.0 0.00 0.03 0.00 68
20260506175437 -17 45 0.0 0.0 0.00 0.03 0.00 68
20260506174937 -17 45 0.0 0.0 0.00 0.03 0.00 67
20260506174437 -17 45 0.0 0.0 0.00 0.03 0.00 66
20260506173937 -17 45 0.0 0.0 0.00 0.03 0.00 66
20260506173437 -17 45 0.0 3.2 0.00 0.03 0.00 65
20260506172937 -17 12 0.0 3.2 0.00 0.03 0.00 65
20260506172437 -17 70 1.6 3.2 0.00 0.03 0.00 64
20260506171937 -17 4 0.0 4.8 0.00 0.03 0.00 62
20260506171437 -17 150 1.6 9.7 0.00 0.03 0.00 62
20260506170937 -17 99 3.2 6.4 0.00 0.03 0.00 62
20260506170437 -17 14 0.0 4.8 0.00 0.03 0.00 63
20260506165937 -17 59 0.0 6.4 0.00 0.03 0.00 63
20260506165437 -17 104 0.0 8.0 0.00 0.03 0.00 63
20260506164937 -17 25 0.0 11.3 0.00 0.03 0.00 62
20260506164437 -17 75 0.0 9.7 0.00 0.03 0.00 64
20260506163937 -17 66 1.6 9.7 0.00 0.03 0.00 63
20260506163437 -17 160 8.0 9.7 0.00 0.03 0.00 62
20260506162937 -17 149 1.6 9.7 0.00 0.03 0.00 62
20260506162437 -17 125 3.2 9.7 0.00 0.03 0.00 63
20260506161937 -17 191 4.8 11.3 0.00 0.03 0.00 62
20260506161437 -17 250 0.0 4.8 0.00 0.03 0.00 65
20260506160937 -17 12 1.6 8.0 0.00 0.03 0.00 66
20260506160437 -17 2 0.0 3.2 0.00 0.03 0.00 67
20260506155937 -17 82 0.0 9.7 0.00 0.03 0.00 65
20260506155437 -17 70 0.0 3.2 0.00 0.03 0.00 67
20260506154937 -17 91 1.6 8.0 0.00 0.03 0.00 66
20260506154437 -17 45 1.6 12.9 0.00 0.03 0.00 63
20260506153937 -17 118 4.8 8.0 0.00 0.03 0.00 67
20260506153437 -17 68 1.6 12.9 0.00 0.03 0.00 62
20260506152937 -17 95 3.2 19.3 0.00 0.03 0.00 64
20260506152437 -17 112 4.8 11.3 0.00 0.03 0.00 64
20260506151937 -17 90 8.0 12.9 0.00 0.03 0.00 63
20260506151437 -17 119 4.8 11.3 0.00 0.03 0.00 63
20260506150937 -17 129 3.2 6.4 0.00 0.03 0.00 63
20260506150438 -17 30 0.0 12.9 0.00 0.03 0.00 64
20260506145938 -17 61 0.0 9.7 0.00 0.03 0.00 65
20260506145438 -17 307 4.8 17.7 0.00 0.03 0.00 66
20260506144938 -17 156 14.5 22.5 0.00 0.03 0.00 68
20260506144438 -17 92 4.8 22.5 0.00 0.03 0.00 70
20260506143938 -17 123 11.3 20.9 0.00 0.03 0.00 69
20260506143438 -17 300 8.0 24.1 0.00 0.03 0.00 70
20260506142938 -17 156 14.5 19.3 0.00 0.03 0.00 69
20260506142438 -17 97 6.4 24.1 0.00 0.03 0.00 70
20260506141938 -17 144 4.8 22.5 0.00 0.03 0.00 70
20260506141438 -17 118 8.0 24.1 0.00 0.03 0.00 70
20260506140938 -17 115 8.0 27.4 0.00 0.03 0.00 72
20260506140438 -17 123 6.4 20.9 0.00 0.03 0.00 70
20260506135938 -17 90 0.0 14.5 0.00 0.03 0.00 72
20260506135438 -17 354 4.8 16.1 0.00 0.03 0.00 72
20260506134938 -17 119 6.4 17.7 0.00 0.03 0.00 71
20260506134438 -17 112 9.7 19.3 0.00 0.03 0.00 69
20260506133938 -17 132 8.0 17.7 0.00 0.03 0.00 71
20260506133438 -17 101 6.4 16.1 0.00 0.03 0.00 68
20260506132938 -17 50 1.6 12.9 0.00 0.03 0.00 68
20260506132438 -17 151 3.2 11.3 0.00 0.03 0.00 67
20260506131938 -17 30 0.0 9.7 0.00 0.03 0.00 69
20260506131438 -17 132 4.8 14.5 0.00 0.03 0.00 69
20260506130938 -17 75 3.2 12.9 0.00 0.03 0.00 69
20260506130438 -17 91 4.8 12.9 0.00 0.03 0.00 71
20260506125938 -17 161 1.6 17.7 0.00 0.03 0.00 71
20260506125438 -17 132 6.4 17.7 0.00 0.03 0.00 71
20260506124938 -17 70 8.0 16.1 0.00 0.03 0.00 72
20260506124438 -17 102 6.4 29.0 0.00 0.03 0.00 73
20260506123938 -17 153 12.9 22.5 0.00 0.03 0.00 75
20260506123438 -17 167 6.4 22.5 0.00 0.03 0.00 76
20260506122938 -17 130 9.7 16.1 0.00 0.03 0.00 76
20260506122438 -17 126 9.7 27.4 0.00 0.03 0.00 77
20260506121938 -17 59 8.0 16.1 0.00 0.03 0.00 75
20260506121438 -17 151 12.9 17.7 0.00 0.03 0.00 74
20260506120938 -17 156 4.8 16.1 0.00 0.03 0.00 75
20260506120438 -17 42 6.4 20.9 0.00 0.03 0.00 70
20260506115938 -17 80 9.7 17.7 0.00 0.03 0.00 71
20260506115438 -17 253 4.8 19.3 0.00 0.03 0.00 75
20260506114938 -17 358 4.8 19.3 0.00 0.03 0.00 74
20260506114438 -17 81 6.4 14.5 0.00 0.03 0.00 75
20260506113938 -17 63 4.8 19.3 0.00 0.03 0.00 80
20260506113438 -17 187 12.9 19.3 0.00 0.03 0.00 79
20260506112938 -17 122 3.2 16.1 0.00 0.03 0.00 79
20260506112438 -17 101 6.4 12.9 0.00 0.03 0.00 82
20260506111938 -17 74 3.2 12.9 0.00 0.03 0.00 81
20260506111438 -17 67 6.4 16.1 0.00 0.03 0.00 83
20260506110938 -17 82 8.0 14.5 0.00 0.03 0.00 79
20260506110438 -17 189 1.6 16.1 0.00 0.03 0.00 83
20260506105938 -17 180 4.8 9.7 0.00 0.03 0.00 85
20260506105439 -17 68 3.2 8.0 0.00 0.03 0.00 86
20260506104938 -17 191 3.2 16.1 0.00 0.03 0.00 86
20260506104438 -17 73 3.2 11.3 0.00 0.03 0.00 87
20260506103938 -17 54 1.6 4.8 0.00 0.03 0.00 87
20260506103438 -17 19 1.6 11.3 0.00 0.03 0.00 86
20260506102938 -17 158 3.2 8.0 0.00 0.03 0.00 87
20260506102438 -17 11 1.6 4.8 0.00 0.03 0.00 83
20260506101938 -17 47 1.6 3.2 0.00 0.03 0.00 83
20260506101438 -17 0 0.0 0.0 0.00 0.03 0.00 84
20260506100938 -17 0 0.0 4.8 0.00 0.03 0.00 85
20260506100438 -17 243 1.6 4.8 0.00 0.03 0.00 85
20260506095938 -17 28 0.0 1.6 0.00 0.03 0.00 86
20260506095438 -17 36 0.0 3.2 0.00 0.03 0.00 90
20260506094938 -17 11 1.6 3.2 0.00 0.03 0.00 90
20260506094438 -17 91 0.0 4.8 0.00 0.03 0.00 91
20260506093938 -17 227 0.0 0.0 0.00 0.03 0.00 91
20260506093438 -17 227 0.0 4.8 0.00 0.03 0.00 90
20260506092938 -17 113 0.0 4.8 0.00 0.03 0.00 91
20260506092438 -17 202 1.6 6.4 0.00 0.03 0.00 91
20260506091938 -17 78 0.0 6.4 0.00 0.03 0.00 91
20260506091438 -17 177 0.0 6.4 0.00 0.03 0.00 91
20260506090939 -17 201 3.2 8.0 0.00 0.03 0.00 92
20260506090438 -17 80 1.6 4.8 0.00 0.03 0.00 92
20260506085938 -17 46 0.0 1.6 0.00 0.03 0.00 92
20260506085438 -17 91 1.6 4.8 0.00 0.03 0.00 92
20260506084938 -17 63 0.0 4.8 0.00 0.03 0.00 92
20260506084438 -17 22 0.0 8.0 0.00 0.03 0.00 85
20260506083938 -17 255 3.2 11.3 0.00 0.03 0.00 85
20260506083438 -17 164 11.3 11.3 0.00 0.03 0.00 92
20260506082938 -17 163 3.2 16.1 0.00 0.03 0.00 87
20260506082438 -17 146 3.2 11.3 0.00 0.03 0.00 87
20260506081938 -17 111 1.6 17.7 0.00 0.03 0.00 86
20260506081438 -17 127 3.2 12.9 0.00 0.03 0.00 91
20260506080938 -17 98 8.0 17.7 0.00 0.03 0.00 91
20260506080439 -17 135 3.2 22.5 0.00 0.03 0.00 91
20260506073439 -17 146 0.0 14.5 0.00 0.03 0.00 86
20260506072939 -17 149 3.2 11.3 0.00 0.03 0.00 86
20260506072439 -17 161 3.2 14.5 0.00 0.03 0.00 85
20260506071939 -17 78 0.0 6.4 0.00 0.03 0.00 86
20260506071439 -17 146 0.0 1.6 0.00 0.03 0.00 86
20260506070939 -17 105 0.0 4.8 0.00 0.03 0.00 86
20260506070439 -17 113 0.0 4.8 0.00 0.03 0.00 87
20260506062439 -17 52 0.0 3.2 0.00 0.03 0.00 87
20260506061939 -17 46 0.0 1.6 0.00 0.03 0.00 87
20260506061439 -17 233 0.0 1.6 0.00 0.03 0.00 88
20260506060939 -17 233 0.0 0.0 0.00 0.03 0.00 92
20260506060439 -17 233 0.0 3.2 0.00 0.03 0.00 92
20260506050939 -17 260 0.0 0.0 0.00 0.03 0.00 91
20260506050439 -17 260 0.0 0.0 0.00 0.03 0.00 91
20260506044939 -17 260 0.0 0.0 0.00 0.03 0.00 92
20260506044439 -17 260 0.0 0.0 0.00 0.03 0.00 91
20260506043939 -17 260 0.0 0.0 0.00 0.03 0.00 91
20260506043439 -17 260 0.0 0.0 0.00 0.03 0.00 92
20260506042939 -17 260 0.0 0.0 0.00 0.03 0.00 91
20260506042439 -17 260 0.0 0.0 0.00 0.03 0.00 92
20260506041939 -17 260 0.0 0.0 0.00 0.03 0.00 91